Satellite-Ground Cal/Val Site Overpasses Predictions

Prediction of Satellite NPP Overpassing Cal/Val Site: Antarctic Dome C

Ground Cal/Val Site Location: Latitude: -75.10, Longitude: 123.35; Satellite-Ground Site NADIR distance within 100 km.

Table of predicted overpasses for the next 14.0 days since TLE Epoch: 7/14/2017
Interval Starting Time Ending Time Minimum Distance Time Minimum Distance (km)
1 07/15/2017 07:43:45 07/15/2017 07:44:06 07/15/2017 07:43:55 67.47
2 07/16/2017 07:24:52 07/16/2017 07:25:19 07/16/2017 07:25:05 40.74
3 07/18/2017 15:07:17 07/18/2017 15:07:26 07/18/2017 15:07:22 93.65
4 07/19/2017 14:48:17 07/19/2017 14:48:46 07/19/2017 14:48:32 17.46
5 07/21/2017 07:31:06 07/21/2017 07:31:36 07/21/2017 07:31:21 4.18
6 07/24/2017 14:54:33 07/24/2017 14:55:02 07/24/2017 14:54:47 18.76
7 07/25/2017 14:35:51 07/25/2017 14:36:04 07/25/2017 14:35:57 88.17
8 07/26/2017 07:37:22 07/26/2017 07:37:50 07/26/2017 07:37:36 31.69


NCC Satellite Cal/Val Overpasses Prediction Service
